TimePDT,TemperatureF,Dew PointF,Humidity,Sea Level PressureIn,VisibilityMPH,Wind Direction,Wind SpeedMPH,Gust SpeedMPH,PrecipitationIn,Events,Conditions,WindDirDegrees,DateUTC
12:53 AM,68.0,60.1,76,29.88,10.0,Calm,Calm,-,N/A,,Clear,0,2013-09-04 07:53:00
1:53 AM,64.9,61.0,87,29.89,10.0,Calm,Calm,-,N/A,,Clear,0,2013-09-04 08:53:00
2:53 AM,64.9,61.0,87,29.90,10.0,Calm,Calm,-,N/A,,Clear,0,2013-09-04 09:53:00
3:53 AM,66.0,59.0,78,29.90,10.0,Calm,Calm,-,N/A,,Clear,0,2013-09-04 10:53:00
4:53 AM,61.0,60.1,97,29.90,10.0,Calm,Calm,-,N/A,,Clear,0,2013-09-04 11:53:00
5:53 AM,60.1,59.0,96,29.91,10.0,Calm,Calm,-,N/A,,Clear,0,2013-09-04 12:53:00
6:53 AM,60.1,59.0,96,29.91,10.0,NNW,3.5,-,N/A,,Clear,330,2013-09-04 13:53:00
7:53 AM,66.9,61.0,81,29.93,10.0,Calm,Calm,-,N/A,,Clear,0,2013-09-04 14:53:00
8:53 AM,73.0,57.0,57,29.93,10.0,Calm,Calm,-,N/A,,Clear,0,2013-09-04 15:53:00
9:53 AM,77.0,55.9,48,29.94,10.0,Calm,Calm,-,N/A,,Clear,0,2013-09-04 16:53:00
10:53 AM,80.1,55.0,42,29.94,10.0,Calm,Calm,-,N/A,,Clear,0,2013-09-04 17:53:00
11:53 AM,84.0,55.9,38,29.94,10.0,East,4.6,-,N/A,,Clear,80,2013-09-04 18:53:00
12:53 PM,87.1,55.9,35,29.92,10.0,Variable,3.5,-,N/A,,Clear,0,2013-09-04 19:53:00
1:53 PM,89.1,55.9,32,29.90,10.0,Calm,Calm,-,N/A,,Clear,0,2013-09-04 20:53:00
2:53 PM,90.0,57.0,33,29.87,10.0,Variable,3.5,-,N/A,,Clear,0,2013-09-04 21:53:00
3:53 PM,91.9,62.1,37,29.86,10.0,North,4.6,-,N/A,,Clear,350,2013-09-04 22:53:00
4:53 PM,88.0,61.0,40,29.83,10.0,North,9.2,-,N/A,,Partly Cloudy,350,2013-09-04 23:53:00
5:24 PM,91.4,51.8,26,29.85,10.0,Calm,Calm,-,N/A,Thunderstorm,Thunderstorm,0,2013-09-05 00:24:00
5:53 PM,91.0,55.9,30,29.82,10.0,ENE,13.8,-,N/A,Thunderstorm,Thunderstorm,60,2013-09-05 00:53:00
6:05 PM,91.4,53.6,28,29.83,10.0,NE,10.4,-,N/A,,Clear,50,2013-09-05 01:05:00
6:53 PM,84.9,61.0,44,29.86,10.0,SE,17.3,27.6,N/A,,Mostly Cloudy,130,2013-09-05 01:53:00
7:53 PM,75.9,61.0,60,29.83,10.0,Calm,Calm,-,N/A,,Clear,0,2013-09-05 02:53:00
8:53 PM,75.9,61.0,60,29.85,10.0,Calm,Calm,-,N/A,,Clear,0,2013-09-05 03:53:00
9:53 PM,77.0,64.0,64,29.86,10.0,SE,13.8,-,N/A,,Clear,140,2013-09-05 04:53:00
10:53 PM,73.9,64.9,73,29.83,10.0,ENE,5.8,-,N/A,,Partly Cloudy,70,2013-09-05 05:53:00
11:53 PM,73.0,64.0,73,29.86,10.0,Calm,Calm,-,N/A,,Clear,0,2013-09-05 06:53:00